Location: Unspecified
(52.4292°N, 19.3359°E)
Time: 22:15:50
(UTC+02:00)

A-11 Canister half - Pass Details

Date: 20 May 2024
Orbit: 1524 x 1683 km, 47.3° (Epoch: 19 June)

Event Time Altitude Azimuth Distance (km) Brightness Sun altitude
Rises 01:55:03 0° 267° (W) 4,746 11.4 -15.7°
Reaches altitude 10° 01:58:06 10° 265° (W) 3,782 10.8 -15.5°
Maximum altitude 02:07:35 65° 186° (S) 1,752 9.0 -15.0°
Drops below altitude 10° 02:17:23 10° 108° (ESE) 3,902 11.2 -14.4°
Sets 02:20:35 0° 106° (ESE) 4,905 11.8 -14.2°
